Time,TemperatureF,DewpointF,PressureIn,WindDirection,WindDirectionDegrees,WindSpeedMPH,WindSpeedGustMPH,Humidity,HourlyPrecipIn,Conditions,Clouds,dailyrainin,SolarRadiationWatts/m^2,SoftwareType,DateUTC
2013-05-21 00:02:00,63.0,60.0,-100.00,ENE,70,4.0,5.0,89,0.00,,,0.19,0.000000,,2013-05-21 05:02:00,
2013-05-21 00:32:00,65.0,60.0,-100.00,East,91,6.0,7.0,85,0.00,,,0.19,0.000000,,2013-05-21 05:32:00,
2013-05-21 00:42:00,65.0,60.0,-100.00,East,91,6.0,7.0,85,0.00,,,0.19,0.000000,,2013-05-21 05:42:00,
2013-05-21 00:52:00,65.0,60.0,-100.00,East,91,6.0,7.0,85,0.00,,,0.19,0.000000,,2013-05-21 05:52:00,
2013-05-21 01:02:00,65.0,60.0,-100.00,East,91,6.0,7.0,85,0.00,,,0.19,0.000000,,2013-05-21 06:02:00,
2013-05-21 01:32:00,64.0,60.0,-100.00,NNE,13,4.0,8.0,88,0.00,,,0.19,0.000000,,2013-05-21 06:32:00,
2013-05-21 01:42:00,64.0,60.0,-100.00,NNE,13,4.0,8.0,88,0.00,,,0.19,0.000000,,2013-05-21 06:42:00,
2013-05-21 01:52:00,64.0,60.0,-100.00,NNE,13,4.0,8.0,88,0.00,,,0.19,0.000000,,2013-05-21 06:52:00,
2013-05-21 02:01:00,64.0,60.0,-100.00,NNE,13,4.0,8.0,88,0.00,,,0.19,0.000000,,2013-05-21 07:01:00,
2013-05-21 02:32:00,62.0,61.0,-100.00,ESE,123,8.0,12.0,98,0.29,,,0.48,0.000000,,2013-05-21 07:32:00,
2013-05-21 02:42:00,62.0,61.0,-100.00,ESE,123,8.0,12.0,98,0.29,,,0.48,0.000000,,2013-05-21 07:42:00,
2013-05-21 02:52:00,62.0,61.0,-100.00,ESE,123,8.0,12.0,98,0.29,,,0.48,0.000000,,2013-05-21 07:52:00,
2013-05-21 03:02:00,62.0,61.0,-100.00,ESE,123,8.0,12.0,98,0.29,,,0.48,0.000000,,2013-05-21 08:02:00,
2013-05-21 04:33:00,61.0,61.0,-100.00,SE,136,3.0,8.0,100,-99.99,,,0.31,0.000000,,2013-05-21 09:33:00,
2013-05-21 04:42:00,61.0,61.0,-100.00,SE,136,3.0,8.0,100,-99.99,,,0.31,0.000000,,2013-05-21 09:42:00,
2013-05-21 04:53:00,61.0,61.0,-100.00,SE,136,3.0,8.0,100,-99.99,,,0.31,0.000000,,2013-05-21 09:53:00,
2013-05-21 05:02:00,61.0,61.0,-100.00,SE,136,3.0,8.0,100,-99.99,,,0.31,0.000000,,2013-05-21 10:02:00,
2013-05-21 05:33:00,61.0,61.0,-100.00,SW,219,7.0,12.0,100,0.00,,,0.31,0.000000,,2013-05-21 10:33:00,
2013-05-21 05:42:00,61.0,61.0,-100.00,SW,219,7.0,12.0,100,0.00,,,0.31,0.000000,,2013-05-21 10:42:00,
2013-05-21 05:52:00,61.0,61.0,-100.00,SW,219,7.0,12.0,100,0.00,,,0.31,0.000000,,2013-05-21 10:52:00,
2013-05-21 06:02:00,61.0,61.0,-100.00,SW,219,7.0,12.0,100,0.00,,,0.31,0.000000,,2013-05-21 11:02:00,
2013-05-21 06:32:00,59.0,59.0,-100.00,South,189,6.0,9.0,100,0.00,,,0.31,0.000000,,2013-05-21 11:32:00,
2013-05-21 06:42:00,59.0,59.0,-100.00,South,189,6.0,9.0,100,0.00,,,0.31,0.000000,,2013-05-21 11:42:00,
2013-05-21 06:52:00,59.0,59.0,-100.00,South,189,6.0,9.0,100,0.00,,,0.31,0.000000,,2013-05-21 11:52:00,
2013-05-21 07:01:00,59.0,59.0,-100.00,South,189,6.0,9.0,100,0.00,,,0.31,0.000000,,2013-05-21 12:01:00,
2013-05-21 07:32:00,61.0,61.0,-100.00,South,191,5.0,8.0,100,0.00,,,0.30,0.000000,,2013-05-21 12:32:00,
2013-05-21 07:42:00,61.0,61.0,-100.00,South,191,5.0,8.0,100,0.00,,,0.30,0.000000,,2013-05-21 12:42:00,
2013-05-21 07:52:00,61.0,61.0,-100.00,South,191,5.0,8.0,100,0.00,,,0.30,0.000000,,2013-05-21 12:52:00,
2013-05-21 08:01:00,61.0,61.0,-100.00,South,191,5.0,8.0,100,0.00,,,0.30,0.000000,,2013-05-21 13:01:00,
2013-05-21 08:32:00,62.0,61.0,-100.00,South,185,6.0,8.0,97,0.00,,,-99.99,0.000000,,2013-05-21 13:32:00,
2013-05-21 08:42:00,62.0,61.0,-100.00,South,185,6.0,8.0,97,0.00,,,-99.99,0.000000,,2013-05-21 13:42:00,
2013-05-21 08:52:00,62.0,61.0,-100.00,South,185,6.0,8.0,97,0.00,,,-99.99,0.000000,,2013-05-21 13:52:00,
2013-05-21 09:01:00,62.0,61.0,-100.00,South,185,6.0,8.0,97,0.00,,,-99.99,0.000000,,2013-05-21 14:01:00,
2013-05-21 09:32:00,65.0,62.0,-100.00,South,174,7.0,11.0,90,0.00,,,0.30,0.000000,,2013-05-21 14:32:00,
2013-05-21 09:42:00,65.0,62.0,-100.00,South,174,7.0,11.0,90,0.00,,,0.30,0.000000,,2013-05-21 14:42:00,
2013-05-21 09:52:00,65.0,62.0,-100.00,South,174,7.0,11.0,90,0.00,,,0.30,0.000000,,2013-05-21 14:52:00,
2013-05-21 10:01:00,65.0,62.0,-100.00,South,174,7.0,11.0,90,0.00,,,0.30,0.000000,,2013-05-21 15:01:00,
2013-05-21 11:32:00,65.0,61.0,-100.00,SSW,205,8.0,14.0,88,-99.99,,,-99.99,0.000000,,2013-05-21 16:32:00,
2013-05-21 11:42:00,65.0,61.0,-100.00,SSW,205,8.0,14.0,88,-99.99,,,-99.99,0.000000,,2013-05-21 16:42:00,
2013-05-21 11:53:00,65.0,61.0,-100.00,SSW,205,8.0,14.0,88,-99.99,,,-99.99,0.000000,,2013-05-21 16:53:00,
2013-05-21 12:02:00,65.0,61.0,-100.00,SSW,205,8.0,14.0,88,-99.99,,,-99.99,0.000000,,2013-05-21 17:02:00,
2013-05-21 12:33:00,66.0,65.0,-100.00,SW,215,8.0,15.0,97,0.02,,,0.32,0.000000,,2013-05-21 17:33:00,
2013-05-21 12:44:00,66.0,65.0,-100.00,SW,215,8.0,15.0,97,0.02,,,0.32,0.000000,,2013-05-21 17:44:00,
2013-05-21 12:52:00,66.0,65.0,-100.00,SW,215,8.0,15.0,97,0.02,,,0.32,0.000000,,2013-05-21 17:52:00,
2013-05-21 13:02:00,66.0,65.0,-100.00,SW,215,8.0,15.0,97,0.02,,,0.32,0.000000,,2013-05-21 18:02:00,
2013-05-21 13:32:00,71.0,65.0,-100.00,SSW,197,9.0,15.0,82,0.00,,,0.32,0.000000,,2013-05-21 18:32:00,
2013-05-21 13:42:00,71.0,65.0,-100.00,SSW,197,9.0,15.0,82,0.00,,,0.32,0.000000,,2013-05-21 18:42:00,
2013-05-21 13:52:00,71.0,65.0,-100.00,SSW,197,9.0,15.0,82,0.00,,,0.32,0.000000,,2013-05-21 18:52:00,
2013-05-21 14:01:00,71.0,65.0,-100.00,SSW,197,9.0,15.0,82,0.00,,,0.32,0.000000,,2013-05-21 19:01:00,
2013-05-21 14:32:00,66.0,62.0,-100.00,WSW,245,5.0,15.0,87,0.01,,,-99.99,0.000000,,2013-05-21 19:32:00,
2013-05-21 14:42:00,66.0,62.0,-100.00,WSW,245,5.0,15.0,87,0.01,,,-99.99,0.000000,,2013-05-21 19:42:00,
2013-05-21 14:52:00,66.0,62.0,-100.00,WSW,245,5.0,15.0,87,0.01,,,-99.99,0.000000,,2013-05-21 19:52:00,
2013-05-21 15:03:00,66.0,62.0,-100.00,WSW,245,5.0,15.0,87,0.01,,,-99.99,0.000000,,2013-05-21 20:03:00,
2013-05-21 15:33:00,71.0,63.0,-100.00,SW,216,8.0,14.0,75,0.00,,,0.33,0.000000,,2013-05-21 20:33:00,
2013-05-21 15:42:00,71.0,63.0,-100.00,SW,216,8.0,14.0,75,0.00,,,0.33,0.000000,,2013-05-21 20:42:00,
2013-05-21 15:52:00,71.0,63.0,-100.00,SW,216,8.0,14.0,75,0.00,,,0.33,0.000000,,2013-05-21 20:52:00,
2013-05-21 16:02:00,71.0,63.0,-100.00,SW,216,8.0,14.0,75,0.00,,,0.33,0.000000,,2013-05-21 21:02:00,
2013-05-21 17:33:00,70.0,57.0,-100.00,SSW,211,12.0,20.0,63,-99.99,,,0.33,0.000000,,2013-05-21 22:33:00,
2013-05-21 17:42:00,70.0,57.0,-100.00,SSW,211,12.0,20.0,63,-99.99,,,0.33,0.000000,,2013-05-21 22:42:00,
2013-05-21 17:53:00,70.0,57.0,-100.00,SSW,211,12.0,20.0,63,-99.99,,,0.33,0.000000,,2013-05-21 22:53:00,
2013-05-21 18:02:00,70.0,57.0,-100.00,SSW,211,12.0,20.0,63,-99.99,,,0.33,0.000000,,2013-05-21 23:02:00,
2013-05-21 18:32:00,72.0,57.0,-100.00,SW,221,9.0,17.0,59,0.00,,,0.33,0.000000,,2013-05-21 23:32:00,
2013-05-21 18:42:00,72.0,57.0,-100.00,SW,221,9.0,17.0,59,0.00,,,0.33,0.000000,,2013-05-21 23:42:00,
2013-05-21 18:52:00,72.0,57.0,-100.00,SW,221,9.0,17.0,59,0.00,,,0.33,0.000000,,2013-05-21 23:52:00,
2013-05-21 19:01:00,72.0,57.0,-100.00,SW,221,9.0,17.0,59,0.00,,,0.33,0.000000,,2013-05-22 00:01:00,
2013-05-21 19:32:00,69.0,54.0,-100.00,SW,231,8.0,16.0,59,0.00,,,0.33,0.000000,,2013-05-22 00:32:00,
2013-05-21 19:42:00,69.0,54.0,-100.00,SW,231,8.0,16.0,59,0.00,,,0.33,0.000000,,2013-05-22 00:42:00,
2013-05-21 19:52:00,69.0,54.0,-100.00,SW,231,8.0,16.0,59,0.00,,,0.33,0.000000,,2013-05-22 00:52:00,
2013-05-21 20:01:00,69.0,54.0,-100.00,SW,231,8.0,16.0,59,0.00,,,0.33,0.000000,,2013-05-22 01:01:00,
2013-05-21 20:32:00,66.0,56.0,-100.00,WSW,239,7.0,10.0,71,0.00,,,0.33,0.000000,,2013-05-22 01:32:00,
2013-05-21 20:42:00,66.0,56.0,-100.00,WSW,239,7.0,10.0,71,0.00,,,0.33,0.000000,,2013-05-22 01:42:00,
2013-05-21 20:52:00,66.0,56.0,-100.00,WSW,239,7.0,10.0,71,0.00,,,0.33,0.000000,,2013-05-22 01:52:00,
2013-05-21 21:01:00,66.0,56.0,-100.00,WSW,239,7.0,10.0,71,0.00,,,0.33,0.000000,,2013-05-22 02:01:00,
2013-05-21 21:32:00,64.0,54.0,-100.00,SW,232,5.0,10.0,69,0.00,,,0.33,0.000000,,2013-05-22 02:32:00,
2013-05-21 21:42:00,64.0,54.0,-100.00,SW,232,5.0,10.0,69,0.00,,,0.33,0.000000,,2013-05-22 02:42:00,
2013-05-21 21:52:00,64.0,54.0,-100.00,SW,232,5.0,10.0,69,0.00,,,0.33,0.000000,,2013-05-22 02:52:00,
2013-05-21 22:01:00,64.0,54.0,-100.00,SW,232,5.0,10.0,69,0.00,,,0.33,0.000000,,2013-05-22 03:01:00,
2013-05-21 22:33:00,63.0,55.0,-100.00,WSW,258,3.0,9.0,74,0.00,,,0.33,0.000000,,2013-05-22 03:33:00,
2013-05-21 22:43:00,63.0,55.0,-100.00,WSW,258,3.0,9.0,74,0.00,,,0.33,0.000000,,2013-05-22 03:43:00,
2013-05-21 22:53:00,63.0,55.0,-100.00,WSW,258,3.0,9.0,74,0.00,,,0.33,0.000000,,2013-05-22 03:53:00,
2013-05-21 23:03:00,63.0,55.0,-100.00,WSW,258,3.0,9.0,74,0.00,,,0.33,0.000000,,2013-05-22 04:03:00,
2013-05-21 23:33:00,61.0,55.0,-100.00,East,99,3.0,5.0,80,0.00,,,0.33,0.000000,,2013-05-22 04:33:00,
2013-05-21 23:43:00,61.0,55.0,-100.00,East,99,3.0,5.0,80,0.00,,,0.33,0.000000,,2013-05-22 04:43:00,
2013-05-21 23:53:00,61.0,55.0,-100.00,East,99,3.0,5.0,80,0.00,,,0.33,0.000000,,2013-05-22 04:53:00,